Powrót do katalogu

STARLINK-35676

AktywnyŁącznośćVLEO
NORAD 67345·PAYLOAD·🇺🇸 United States

Wystrzelony Jan 9, 2026 z Cape Canaveral Space Force Station

Loading…

Następne Przeloty (najbliższe 24 godziny)

TLE

ŚwieżeSource: CelesTrak SupGP

Epoka: Sep 15, 2026, 03:24 UTC

1 67345C 26003M   26258.14215278 -.00053278  00000+0 -19298-2 0  2584
2 67345  42.9993 236.9510 0001211 266.8349 335.8699 15.27602824    13

Śledź STARLINK-35676 w czasie rzeczywistym z AllMySat

Download on the App Store